Location: Unspecified
(0.0000°N, 0.0000°E)
Time: 20:07:50
(UTC+00:00)

Daily predictions for brighter satellites

Satellite Brightness Start Highest point End
(mag) Time Altitude Azimuth Time Altitude Azimuth Time Altitude Azimuth
Ariane H10+ 4.0 18:09:30 10° W 18:23:58 72° S 18:28:44 10° E
Cosmos 1892 Rocket 3.8 18:20:37 10° SSE 18:24:48 48° E 18:29:00 10° NNE
NOSS 2-3 (D) 4.0 18:20:17 10° SSW 18:25:01 72° WNW 18:29:24 10° NNE
Cosmos 2219 Rocket 3.2 18:22:47 10° NNW 18:28:11 50° WSW 18:33:39 10° S
Ariane Rocket 3.0 18:24:53 10° SSE 18:30:00 89° ENE 18:35:05 10° NNW
EO 1 Del DPAF 3.5 18:26:54 10° NNE 18:30:31 43° ESE 18:34:08 10° S
YAOGAN 1 2.6 18:31:43 10° SSE 18:36:04 86° ENE 18:40:22 10° N
Cosmos 1634 Rocket 4.0 18:29:52 10° S 18:36:09 66° E 18:42:23 10° NNE
PSLV R/B 4.5 18:35:25 10° S 18:37:50 20° SE 18:40:13 10° E
SME Rocket 3.6 18:34:02 10° SE 18:38:06 36° E 18:41:33 10° N
ATLAS 2AS CENTAUR R/B 3.2 18:45:50 10° S 18:52:17 40° ESE 18:59:15 10° NE
CZ-4 R/B 3.3 18:49:16 10° SSW 18:52:48 29° WSW 18:56:16 10° NW
Cosmos 2333 Rocket 4.1 18:52:12 10° NW 18:57:06 29° WSW 19:02:01 10° SSW
LE-5 2.8 18:56:00 10° WNW 18:57:44 58° SSW 18:58:32 31° SE
Delta 2 Rocket 3.9 18:52:30 10° WNW 18:58:30 83° NNE 19:03:11 19° ESE
GENESIS II 4.1 18:55:58 10° SSW 18:59:45 64° ESE 19:03:33 10° NNE
ATLAS V CENTAUR R/B 3.0 18:58:51 10° SSW 19:00:13 22° SSE 19:00:13 22° SSE
Cosmos 489 Rocket 4.4 18:54:14 10° N 19:00:29 74° ENE 19:06:42 10° SSE
BREEZE-M DEB (TANK) 3.6 18:54:25 10° NW 19:01:40 45° WSW 19:04:07 13° SSE
Cosmos 1626 Rocket 3.8 19:02:05 10° SSE 19:06:22 47° E 19:10:39 10° NNE
Nadezhda 4 Rocket 4.0 19:01:03 10° N 19:07:17 84° W 19:13:29 10° S
Cosmos 1707 3.6 19:11:26 28° E 19:11:26 28° E 19:14:40 10° NNE
Cosmos 1378 3.1 19:09:58 14° S 19:13:04 55° E 19:16:42 10° NNE
BREEZE-M DEB (TANK) 2.8 19:11:16 10° N 19:13:23 31° ENE 19:13:48 30° ENE
FengYun 1-2 T 4.2 19:08:01 10° SSE 19:13:38 72° ENE 19:19:08 10° N
DELTA 2 R/B (1) 4.1 19:09:21 10° NNW 19:14:37 44° NE 19:17:08 27° E
Cosmos 2279 Rocket 3.9 19:12:46 10° S 19:19:00 89° W 19:25:11 10° N
BLOCK DM-SL R/B 1.3 19:14:47 10° W 19:19:18 60° N 19:19:43 49° NE
Cosmos 1602 Rocket 3.5 19:16:24 10° S 19:20:47 65° E 19:25:11 10° NNE
Ariane H10+ 1.1 19:18:02 10° WSW 19:23:56 56° S 19:24:18 52° SSE
Cosmos 2026 Rocket 4.0 19:23:15 10° NNE 19:29:09 53° E 19:31:57 31° SSE
Thor Agena Rocket 3.4 19:24:20 10° NNE 19:29:22 88° WNW 19:34:26 10° SSW
Cosmos 1606 Rocket 3.8 19:27:34 10° N 19:31:57 69° W 19:34:50 21° S
Cosmos 1092 Rocket 4.0 19:26:03 10° N 19:32:13 78° W 19:38:22 10° S
Cosmos 1844 Rocket 3.1 19:33:04 39° E 19:33:04 39° E 19:38:01 10° NE
FREGAT/IRIS 3.0 19:34:03 59° W 19:34:03 59° W 19:36:46 10° NNW
Envisat 2.9 19:35:20 42° SE 19:36:57 68° ENE 19:41:58 10° N
SJ-6B 3.6 19:38:07 37° NNE 19:38:07 37° NNE 19:40:49 10° N
Cosmos 1805 3.2 19:40:40 10° N 19:44:28 80° WNW 19:44:28 80° WNW
Cosmos 1400 Rocket 2.8 19:46:17 81° WSW 19:46:23 82° W 19:50:27 10° N
Cosmos 2285 Rocket 3.9 19:40:07 10° S 19:46:27 66° ESE 19:52:43 10° NNE
Cosmos 1048 Rocket 4.0 19:44:09 10° SSW 19:49:21 80° WNW 19:54:37 10° N
GPS 2-14 Rocket1 3.4 19:47:59 10° WSW 19:50:48 46° W 19:50:48 46° W
Meteor 2-5 Rocket 3.8 19:52:47 59° E 19:52:47 59° E 19:58:30 10° NNE
Ariane H10+ 3.6 19:36:27 10° W 19:53:01 77° S 19:53:35 67° SE
SL-16 R/B 2.9 19:51:08 10° NNW 19:56:36 49° WSW 19:59:12 29° SSW
CZ-2D R/B 4.4 20:02:21 43° WNW 20:02:21 43° WNW 20:05:26 10° NNW
IUS-7 SRM-1 3.8 19:49:49 10° WSW 20:04:06 69° NNW 20:04:43 60° NNE
Cosmos 2058 Rocket 3.8 20:00:39 10° NNW 20:04:50 48° W 20:04:53 48° W
Cosmos 1655 Rocket 3.8 20:01:55 10° N 20:07:50 74° ENE 20:07:50 74° ENE
Cosmos 2228 4.5 20:05:27 10° NNW 20:09:27 34° W 20:10:04 33° WSW
ARIANE 5 R/B 2.9 19:53:39 10° W 20:09:43 49° SSW 20:09:43 49° SSW
ARIANE 5 R/B 3.6 20:13:59 10° W 20:49:56 - E 20:16:19 55° WSW
CZ-3C R/B 4.5 20:21:05 10° SW 20:30:56 58° SSE 22:18:02 10° ENE
Ariane H10 3.8 19:56:13 10° W 20:44:01 78° N 20:44:24 76° NNE
